Location: Ammerl�gen
(47.2167°N, 9.6000°E)
Time: 06:40:15
(UTC+00:00)

Cosmos 968 Rocket - Pass Details

Date: 21 April 2021
Orbit: 741 x 770 km, 74.0° (Epoch: 15 May)

Event Time Altitude Azimuth Distance (km) Brightness Sun altitude
Exits shadow 23:03:17 56° 17° (NNE) 920 4.0 -30.5°
Drops below altitude 10° 23:07:24 10° 22° (NNE) 2,320 6.7 -30.5°
Sets 23:09:47 0° 23° (NNE) 3,249 7.7 -30.5°
